DW4391 Weather Reports


Display with metric or nautical units.
time (UTC)temp
F
wind
direction
speed
MPH
gust
MPH
rain 1hr
in
rain 24hr
in
rain mn
in
humidity
%
barometer
mb
20180522114432 68 197 0.0 0.0 0.00 0.00 0.00 100 1016.8
20180522112929 68 197 0.0 0.0 0.00 0.00 0.00 100 1016.7
20180522111423 68 197 0.0 0.0 0.00 0.00 0.00 100 1016.7
20180522105921 68 197 0.0 0.0 0.00 0.00 0.00 100 1016.5
20180522104415 68 197 0.0 0.0 0.00 0.00 0.00 100 1016.4
20180522102909 68 197 0.0 0.0 0.00 0.00 0.00 100 1016.2
20180522101404 68 198 0.0 0.0 0.00 0.00 0.00 100 1016.2
20180522095903 68 197 0.0 0.0 0.00 0.00 0.00 100 1016.3
20180522094356 67 197 0.0 0.0 0.00 0.00 0.00 100 1016.2
20180522092854 67 197 0.0 0.0 0.00 0.00 0.00 100 1016.1
20180522091348 67 197 0.0 0.0 0.00 0.00 0.00 100 1016.0
20180522085842 68 198 0.0 0.0 0.00 0.00 0.00 100 1015.8
20180522084338 68 197 0.0 0.0 0.00 0.00 0.00 100 1015.8
20180522082833 67 198 0.0 0.0 0.00 0.00 0.00 100 1015.8
20180522081333 67 198 0.0 1.0 0.00 0.00 0.00 100 1015.7
20180522075824 67 197 0.0 1.0 0.00 0.00 0.00 100 1015.6
20180522074319 67 197 0.0 0.0 0.00 0.00 0.00 100 1015.7
20180522072816 67 197 0.0 0.0 0.00 0.00 0.00 8 1015.8
20180522071313 67 197 0.0 0.0 0.00 0.00 0.00 13 1015.8
20180522065813 67 198 0.0 0.0 0.00 0.00 0.00 15 1015.9
20180522064316 66 197 0.0 0.0 0.00 0.00 0.00 16 1016.0
20180522062810 66 198 0.0 0.0 0.00 0.00 0.00 18 1016.1
20180522061308 66 197 0.0 0.0 0.00 0.00 0.00 20 1016.2
20180522055807 66 197 0.0 0.0 0.00 0.00 0.00 21 1016.3
20180522054306 66 197 0.0 0.0 0.00 0.00 0.00 22 1016.3
20180522052802 66 198 0.0 0.0 0.00 0.00 0.00 26 1016.4
20180522051300 65 197 0.0 0.0 0.00 0.00 0.00 32 1016.3
20180522045756 66 198 0.0 0.0 0.00 0.00 0.00 40 1016.4
20180522044258 66 197 0.0 0.0 0.00 0.00 0.00 44 1016.3
20180522042752 66 197 0.0 0.0 0.00 0.00 0.00 47 1016.2
20180522041249 66 197 0.0 0.0 0.00 0.00 0.00 48 1016.3
20180522035750 66 198 0.0 0.0 0.00 0.00 0.00 51 1016.3
20180522034242 67 198 0.0 0.0 0.00 0.00 0.00 54 1016.4
20180522032738 67 198 0.0 0.0 0.00 0.00 0.00 56 1016.5
20180522031232 67 198 0.0 0.0 0.00 0.00 0.00 56 1016.6
20180522025731 67 199 0.0 0.0 0.00 0.00 0.00 58 1016.7
20180522024228 67 198 0.0 0.0 0.00 0.00 0.00 58 1016.8
20180522022723 68 198 0.0 0.0 0.00 0.00 0.00 61 1016.7
20180522021217 68 198 0.0 0.0 0.00 0.00 0.00 65 1016.5
20180522015713 69 198 0.0 0.0 0.00 0.00 0.00 67 1016.5
20180522014207 69 198 0.0 0.0 0.00 0.00 0.00 71 1016.4
20180522012702 70 199 0.0 0.0 0.00 0.00 0.00 73 1016.4
20180522011159 71 198 0.0 0.0 0.00 0.00 0.00 75 1016.4
20180522005653 71 198 0.0 1.0 0.00 0.00 0.00 76 1016.4
20180522004150 72 101 0.0 0.0 0.00 0.00 0.00 77 1016.4
20180522002645 74 101 0.0 1.0 0.00 0.00 0.00 75 1016.3
20180522001140 76 240 1.0 3.0 0.00 0.00 0.00 71 1016.2
20180521235634 76 91 0.0 2.0 0.00 0.00 0.00 73 1015.6
20180521234131 76 90 0.0 2.0 0.00 0.00 0.00 72 1015.2
20180521232627 76 222 0.0 1.0 0.00 0.00 0.00 72 1015.1
20180521231122 77 68 0.0 2.0 0.00 0.00 0.00 70 1015.1
20180521225618 78 119 0.0 1.0 0.00 0.00 0.00 69 1015.2
20180521224112 78 120 0.0 2.0 0.00 0.00 0.00 68 1015.1
20180521222610 78 274 0.0 1.0 0.00 0.00 0.00 67 1015.2
20180521221103 78 128 0.0 1.0 0.00 0.00 0.00 69 1015.2
20180521215559 78 120 0.0 2.0 0.00 0.00 0.00 68 1015.2
20180521214056 78 257 0.0 1.0 0.00 0.00 0.00 71 1015.4
20180521212550 78 256 0.0 0.0 0.00 0.00 0.00 73 1015.6
20180521211046 78 248 0.0 1.0 0.00 0.00 0.00 72 1015.6
20180521205541 79 248 0.0 2.0 0.00 0.00 0.00 71 1015.5
20180521204039 79 277 0.0 3.0 0.00 0.00 0.00 70 1015.7
20180521202532 79 67 0.0 0.0 0.00 0.00 0.00 70 1015.8
20180521201028 80 111 0.0 0.0 0.00 0.00 0.00 68 1016.0
20180521195523 80 111 0.0 1.0 0.00 0.00 0.00 66 1016.1
20180521194019 81 112 0.0 3.0 0.00 0.00 0.00 63 1016.3
20180521192515 80 82 0.0 2.0 0.00 0.00 0.00 69 1016.4
20180521191010 78 67 0.0 2.0 0.00 0.00 0.00 72 1016.6
20180521185505 78 67 0.0 2.0 0.00 0.00 0.00 70 1016.9
20180521184003 79 224 1.0 4.0 0.00 0.00 0.00 69 1017.1
20180521182457 80 51 0.0 2.0 0.00 0.00 0.00 70 1017.2
20180521180952 82 103 0.0 3.0 0.00 0.00 0.00 67 1017.4
20180521175446 82 166 1.0 4.0 0.00 0.00 0.00 65 1017.7
20180521173943 79 87 0.0 3.0 0.00 0.00 0.00 69 1017.9
20180521172438 79 86 0.0 2.0 0.00 0.00 0.00 70 1017.9
20180521170933 77 82 0.0 2.0 0.00 0.00 0.00 74 1018.2
20180521165428 76 82 0.0 2.0 0.00 0.00 0.00 73 1018.4
20180521163924 76 79 0.0 1.0 0.00 0.00 0.00 74 1018.6
20180521162420 76 83 0.0 2.0 0.00 0.00 0.00 74 1018.8
20180521160917 76 131 0.0 1.0 0.00 0.00 0.00 73 1018.8
20180521155410 74 160 0.0 2.0 0.00 0.00 0.00 75 1018.8
20180521153908 74 165 0.0 2.0 0.00 0.00 0.00 75 1018.7
20180521152402 73 165 0.0 0.0 0.00 0.00 0.00 77 1018.8
20180521150856 72 165 0.0 1.0 0.00 0.00 0.00 75 1018.8
20180521145351 72 163 0.0 1.0 0.00 0.00 0.00 77 1018.9
20180521143847 71 165 0.0 0.0 0.00 0.00 0.00 77 1018.8
20180521142343 71 166 0.0 1.0 0.00 0.00 0.00 77 1018.8
20180521140837 70 169 0.0 1.0 0.00 0.00 0.00 76 1018.9
20180521135336 68 163 0.0 1.0 0.00 0.00 0.00 68 1019.1
20180521133829 67 163 0.0 1.0 0.00 0.00 0.00 40 1019.2
20180521132325 67 239 0.0 1.0 0.00 0.00 0.00 100 1019.2
20180521130820 67 239 0.0 0.0 0.00 0.00 0.00 100 1019.2
20180521125319 66 239 0.0 0.0 0.00 0.00 0.00 100 1019.0
20180521123811 66 239 0.0 0.0 0.00 0.00 0.00 100 1019.0
20180521122309 66 239 0.0 0.0 0.00 0.00 0.00 100 1018.8
20180521120802 65 238 0.0 0.0 0.00 0.00 0.00 100 1018.7